#timestamp,LO_Frequency,Hit 
1499083215.7,286047058.9,N
1499083235.5,286047061.7,N
1499083255.3,286047059.4,N
1499083275.2,286047059.9,N
1499083295.9,286047057.5,N
1499083315.7,286047060.1,N
1499083335.6,286047059.6,N
1499083355.4,286047061.7,N
1499083375.2,286047061.6,N
1499083395.1,286047059.2,N
1499083396.0,286047059.2,N
1499083415.8,286047059.5,N
1499083435.7,286047059.1,N
1499083455.5,286047060.8,N
1499083475.3,286047060.1,N
1499083495.2,286047057.4,N
1499083515.0,286047059.1,N
1499083515.9,286047059.1,N
1499083535.7,286047059.4,N
1499083555.6,286047061.8,N
1499083575.4,286047059.3,N
1499083595.3,286047057.9,N
1499083615.1,286047059.5,N
1499083616.0,286047059.5,N
1499083635.8,286047057.3,N
1499083655.7,286047057.4,N
1499083675.5,286047057.8,N
1499083695.3,286047057.3,N
1499083715.2,286047058.5,N
1499083735.0,286047057.5,N
1499083735.9,286047057.5,N
1499083755.8,286047057.8,N
1499083775.6,286047057.9,N
1499083795.4,286047057.5,N
1499083815.3,286047060.1,N
1499083835.1,286047060.2,N
1499083855.8,286047058.3,N
1499083875.7,286047058.4,N
1499083895.5,286047058.5,N
1499083915.4,286047058.5,N
1499083935.2,286047056.3,N
1499083955.0,286047056.6,N
1499083955.9,286047056.6,N
1499083975.8,286047055.7,N
1499083995.6,286047058.0,N
1499084015.4,286047055.9,N
1499084035.3,286047058.0,N
1499084055.1,286047057.9,N
1499084075.9,286047059.2,N
1499084095.7,286047060.2,N
1499084115.5,286047060.2,N
1499084135.4,286047058.0,N
1499084155.2,286047056.1,N
1499084175.0,286047057.3,N
1499084175.9,286047057.3,N
1499084195.8,286047059.7,N
1499084215.6,286047059.6,N
1499084235.5,286047060.4,N
1499084255.3,286047060.4,Y
1499084275.1,286046998.5,N
1499084295.9,286047000.0,N
1499084315.7,286046999.9,N
1499084335.5,286046998.5,N
1499084355.4,286046998.7,N
1499084375.2,286046998.4,N
1499084395.1,286046999.1,N
1499084396.0,286046999.1,N
1499084415.8,286047000.7,N
1499084435.6,286047000.8,N
1499084455.5,286046998.5,N
1499084475.3,286046996.8,N
1499084495.1,286046998.2,N
1499084515.9,286047000.4,N
1499084535.7,286046998.1,N
1499084555.6,286046999.2,N
1499084575.4,286046999.3,N
1499084595.2,286047001.2,N
1499084615.1,286047002.2,N
1499084616.0,286047002.2,N
1499084635.8,286047000.5,N
1499084655.6,286047000.1,N
1499084675.5,286047000.7,N
1499084695.3,286047001.9,N
1499084715.2,286047002.7,N
1499084735.9,286047002.1,N
1499084755.7,286047002.2,N
1499084775.6,286047002.2,N
1499084795.4,286047001.7,N
1499084815.2,286047001.3,N
1499084835.1,286047000.4,N
1499084836.0,286047000.4,N
1499084855.8,286047000.3,N
1499084875.6,286047002.4,N
1499084895.5,286047002.6,N
1499084915.3,286047001.9,N
1499084935.2,286047001.8,N
1499084955.9,286047001.6,N
1499084975.7,286047001.8,N
1499084995.6,286047001.4,N
1499085015.4,286047003.5,N
1499085035.2,286047003.8,N
1499085055.1,286047004.0,N
1499085056.0,286047004.0,N
1499085075.8,286047003.4,N
1499085095.7,286047003.3,N
1499085115.5,286047005.9,N
1499085135.3,286047003.6,N
1499085155.2,286047003.9,N
1499085175.0,286047006.0,N
1499085175.9,286047006.0,N
1499085195.7,286047003.6,N
1499085215.6,286047003.9,N
1499085235.4,286047004.0,N
1499085255.3,286047003.1,N
1499085275.1,286047003.0,N
1499085276.0,286047003.0,N
1499085295.8,286047003.1,N
1499085315.7,286047000.3,N
1499085335.5,286047002.2,N
1499085355.3,286047002.2,N
1499085375.2,286047004.1,N
1499085395.0,286047003.8,N
1499085395.9,286047003.8,N
1499085415.8,286047004.1,N
1499085435.6,286047003.9,N
1499085455.4,286047002.6,N
1499085475.3,286047002.2,N
1499085495.1,286047004.2,N
1499085496.0,286047011.9,N
1499085515.8,286047003.6,N
1499085535.7,286047004.1,N
1499085555.5,286047001.4,N
1499085575.3,286047004.3,N
1499085595.2,286047004.1,N
1499085615.0,286047001.4,N
1499085615.9,286047001.4,N
1499085635.8,286047003.1,N
1499085655.6,286047004.3,N
1499085675.4,286047004.4,N
1499085695.3,286047003.5,N
1499085715.1,286047005.8,N
1499085735.8,286047003.4,N
1499085755.7,286047004.9,N
1499085775.5,286047007.6,Y
1499085795.4,286047005.7,N
1499085815.2,286047005.6,N
1499085835.0,286047006.9,N
1499085835.9,286047006.9,N
1499085855.8,286047005.3,N
1499085875.6,286047003.5,N
1499085895.4,286047003.9,N
1499085915.3,286047003.2,N
1499085935.1,286047004.9,N
1499085955.9,286047005.4,N
1499085975.7,286047003.1,N
1499085995.5,286047004.7,N
1499086015.4,286047005.4,N
1499086035.2,286047005.4,N
1499086055.0,286047005.4,N
1499086055.9,286047005.4,N
1499086075.8,286047002.9,N
1499086095.6,286047004.2,N
1499086115.5,286047004.0,N
1499086135.3,286047005.2,N
1499086155.1,286047006.8,Y
1499086175.9,286047004.1,N
1499086195.7,286047004.0,N
1499086215.5,286047004.1,N
1499086235.4,286047002.2,N
1499086255.2,286047002.5,N
1499086275.1,286047000.0,N
1499086276.0,286047000.0,N
1499086295.8,286046998.5,N
1499086315.6,286047000.4,N
1499086335.5,286047001.0,N
1499086355.3,286047001.0,N
1499086375.1,286047000.7,N
1499086395.9,286046998.1,N
1499086415.7,286047001.1,N
1499086435.6,286047011.9,Y
1499086455.4,286046994.9,N
1499086475.2,286046997.2,N
1499086495.1,286046996.8,N
1499086496.0,286046996.8,N
1499086515.8,286046995.2,N
1499086535.6,286046997.2,N
1499086555.5,286046994.9,N
1499086575.3,286046995.2,N
1499086595.2,286046997.5,N
1499086615.9,286046997.9,N
1499086635.7,286046998.5,N
1499086655.6,286046997.3,N
1499086675.4,286046999.0,N
1499086695.2,286046998.9,N
1499086715.1,286046998.4,N
1499086716.0,286046998.4,N
1499086735.8,286046996.9,N
1499086755.7,286046998.7,N
1499086775.5,286046999.6,N
1499086795.3,286046995.4,N
